Location: Celina Division
(33.3022°N, 96.7580°W)
Time: 00:40:23
(UTC+00:00)

H-2A R/B - Pass Details

Date: 10 July 2022
Orbit: 491 x 536 km, 97.3° (Epoch: 01 April)

Event Time Altitude Azimuth Distance (km) Brightness Sun altitude
Rises 10:39:58 0° 21° (NNE) 2,631 7.3 -9.0°
Reaches altitude 10° 10:42:10 10° 30° (NNE) 1,747 6.5 -8.7°
Maximum altitude 10:45:41 37° 98° (E) 824 4.2 -8.1°
Drops below altitude 10° 10:49:12 10° 167° (SSE) 1,753 5.2 -7.4°
Sets 10:51:25 0° 176° (S) 2,641 6.0 -7.1°
